DECAYED
Showing default

CHALLENGEONE, 47956 (Decayed)

Orbit data source: Space-Track

CHALLENGEONE, 47956 was a payload satellite owned by Telnet Holding (TN) in LEO that was launched on Mon, 22 Mar 2021 UTC via a SOYUZ-2-1A launch vehicle from the Tyuratam Missile And Space Complex (TTMTR). Payload-class satellites include a variety of spacecraft equipped with specific instruments for various scientific and technological missions. These include communications satellites like Starlink; space stations such as the ISS; scientific satellites like the Hubble; Earth observation satellites from companies like Planet Labs, Umbra, and HawkEye 360; GPS; miniature CubeSats for education and research; and military/defense satellites.

Not visible in the next 10 days
Identifier
47956, 2021-022AA
Orbit
Decayed
Country
Flag of TNTN / TUN
Related business
Manufacturer
Telnet Holding RU
Mission
Decayed Commercial Communications
Bus & Motor
CUBESAT 2U, Unknown motor
Mass
2 kg wet, 2 kg dry
Launch date (UTC)
2021-03-22 (5 years ago)
Launch vehicle
SOYUZ-2-1A
Launch site
Tyuratam Missile And Space Complex (TTMTR)
Object type
Payload
Rocket body
Debris
Shape & HBR
Box, 0.1 m
Radar Cross Section
0.025 m², Medium (>0.1 m² and < 1m²)

Expand to show TLE details & history
Last TLE update: 1 year ago

TLE from 1 year ago
0 CHALLENGEONE
1 47956U 21022AA  25116.96664909  .06922025  25457-5  13306-2 0  9991
2 47956  97.3977  30.6885 0008324 199.7487 160.3487 16.31824033226917
Epoch: 2025-04-26T23:11Z
TLE epoch observation values (Epoch: 2025-04-26T23:11:58.481Z)
Latitude
-0.00002°
Longitude
-172.50696°
Altitude
196.032 km
Speed
7.786 km/s
True Right ascension
02h 02m 45s
True Declination
0° 00' 00"
Sunlit
Object was in daylight at epoch
Visualization orbit readout
Latitude
Unknown
Longitude
Unknown
Altitude
Unknown
Speed
Unknown
Apparent Right ascension
Unknown
Apparent Declination
Unknown
Sunlit
N/A
Visualization observer readout
Local Sidereal Time
21:43:00
Azimuth
Unknown
Elevation
Unknown
Doppler factor
Unknown
Orbital elements
Apogee altitude
189.923 km
Perigee altitude
178.998 km
Semi-major axis
6,562.598 km
Eccentricity
0.00083
Inclination
97.3977°
RAAN
30.6885°
Arg. of periapsis
199.7487°
True anomaly
160.38075°
Mean anomaly
160.3487°
Eccentric anomaly
160.36473°
Mean motion
4.08253 °/min
Orbital period
88.18 mins
BSTAR
0.0013306
Loading maneuver chart data...
Computing Atmospheric mass density...

Documentation

Showing up to 5 results
|